Location: Fundy National Park
(45.6138°N, 65.0316°W)
Time: 12:28:07
(UTC-03:00)

X-37B - Visible Passes

Search period start: 23 October 2021 00:00
Search period end: 02 November 2021 00:00
Orbit: 342 x 346 km, 45.0° (Epoch: 22 October)

Date Brightness Start Highest point End Pass type
(mag) Time Alt. Az. Time Alt. Az. Time Alt. Az.
23 Oct 0.4 18:56:33 10° W 18:59:27 74° S 19:02:20 10° ESE visible
23 Oct 2.9 20:32:23 10° W 20:33:45 20° WSW 20:33:45 20° WSW visible
24 Oct 1.1 19:19:53 10° W 19:22:42 47° SSW 19:24:44 16° SE visible
25 Oct 2.3 19:43:23 10° W 19:45:50 25° SSW 19:47:13 17° SSE visible
26 Oct 3.3 20:07:43 10° WSW 20:08:50 12° SW 20:09:50 10° SSW visible
27 Oct 2.6 18:54:24 10° W 18:56:47 23° SSW 18:59:10 10° SSE visible
28 Oct 3.6 19:18:58 10° SW 19:19:46 11° SW 19:20:33 10° SSW visible
